Atmospheric History
02/08/2018 18:15  to  2/9/2018 18:15
Change End Date:
To complete the export process:
1) Select all of the data below
2) Copy the data to the clipboard
3) Open a word processor such as Notepad
4) Paste the data into the word processor
5) Save the file

Date/Time (MST), AirTemp, RH, Dewpoint ,AvgWindSpeed, GustWindSpeed, WindDirection, PrecipType, PrecipIntensity, PrecipAccumulation, PrecipRate
02/09/2018 18:12, -5, 79, -10 ,14, 16, N, None, None, ,  
02/09/2018 18:04, -6, 79, -10 ,15, 17, N, None, None, ,  
02/09/2018 18:02, -6, 79, -10 ,16, 17, N, None, None, ,  
02/09/2018 17:52, -5, 79, -10 ,16, 17, N, None, None, ,  
02/09/2018 17:49, -5, 79, -10 ,17, 17, N, None, None, ,  
02/09/2018 17:42, -5, 79, -10 ,17, 19, N, None, None, ,  
02/09/2018 17:34, -5, 79, -9 ,18, 21, N, None, None, ,  
02/09/2018 17:32, -4, 79, -9 ,18, 21, N, None, None, ,  
02/09/2018 17:22, -4, 79, -9 ,17, 20, N, None, None, ,  
02/09/2018 17:19, -4, 79, -9 ,17, 20, N, None, None, ,  
02/09/2018 17:11, -4, 79, -9 ,17, 19, N, None, None, ,  
02/09/2018 17:04, -4, 79, -9 ,16, 18, N, None, None, ,  
02/09/2018 17:01, -4, 79, -8 ,16, 18, N, None, None, ,  
02/09/2018 16:51, -4, 79, -8 ,16, 18, N, None, None, ,  
02/09/2018 16:49, -4, 79, -8 ,16, 18, N, None, None, ,  
02/09/2018 16:41, -4, 79, -8 ,16, 18, N, None, None, ,  
02/09/2018 16:34, -4, 79, -9 ,16, 19, N, None, None, ,  
02/09/2018 16:31, -4, 79, -9 ,17, 19, N, None, None, ,  
02/09/2018 16:21, -4, 79, -9 ,17, 19, N, None, None, ,  
02/09/2018 16:19, -4, 79, -9 ,17, 19, N, None, None, ,  
02/09/2018 16:11, -4, 79, -9 ,18, 21, N, None, None, ,  
02/09/2018 16:04, -4, 78, -9 ,17, 19, N, None, None, ,  
02/09/2018 16:01, -4, 79, -9 ,16, 19, N, None, None, ,  
02/09/2018 15:51, -4, 78, -9 ,17, 19, N, None, None, ,  
02/09/2018 15:49, -4, 78, -9 ,17, 19, N, None, None, ,  
02/09/2018 15:41, -4, 79, -9 ,15, 19, N, None, None, ,  
02/09/2018 15:34, -4, 79, -9 ,17, 19, N, None, None, ,  
02/09/2018 15:31, -4, 79, -9 ,17, 19, N, None, None, ,  
02/09/2018 15:21, -5, 78, -10 ,19, 20, N, None, None, ,  
02/09/2018 15:19, -5, 77, -10 ,18, 19, N, None, None, ,  
02/09/2018 15:11, -3, 75, -9 ,16, 17, N, None, None, ,  
02/09/2018 15:04, -2, 74, -9 ,15, 17, N, None, None, ,  
02/09/2018 15:01, -2, 74, -9 ,14, 16, N, None, None, ,  
02/09/2018 14:51, -1, 74, -8 ,12, 16, N, None, None, ,  
02/09/2018 14:49, -1, 73, -8 ,13, 16, N, None, None, ,  
02/09/2018 14:41, -1, 74, -7 ,14, 16, N, None, None, ,  
02/09/2018 14:34, -1, 75, -7 ,12, 15, N, None, None, ,  
02/09/2018 14:31, -1, 75, -7 ,13, 15, N, None, None, ,  
02/09/2018 14:21, 0, 74, -7 ,12, 13, N, None, None, ,  
02/09/2018 14:19, 0, 73, -7 ,12, 13, N, None, None, ,  
02/09/2018 14:11, 0, 75, -6 ,12, 13, N, None, None, ,  
02/09/2018 14:04, 0, 75, -6 ,11, 12, N, None, None, ,  
02/09/2018 14:01, 0, 75, -6 ,11, 12, N, None, None, ,  
02/09/2018 13:50, -1, 77, -6 ,12, 14, N, None, None, ,  
02/09/2018 13:49, -1, 77, -6 ,12, 15, N, None, None, ,  
02/09/2018 13:40, -1, 77, -7 ,14, 16, N, None, None, ,  
02/09/2018 13:34, 0, 76, -6 ,14, 15, N, None, None, ,  
02/09/2018 13:30, 0, 77, -6 ,12, 14, N, None, None, ,  
02/09/2018 13:20, 0, 76, -5 ,11, 12, N, None, None, ,  
02/09/2018 13:19, 0, 76, -6 ,11, 12, N, None, None, ,  
02/09/2018 13:10, 1, 74, -5 ,10, 11, N, None, None, ,  
02/09/2018 13:04, 1, 74, -5 ,9, 11, N, None, None, ,  
02/09/2018 13:00, 1, 74, -5 ,9, 9, N, None, None, ,  
02/09/2018 12:50, 2, 73, -5 ,7, 9, NW, None, None, ,  
02/09/2018 12:49, 2, 73, -5 ,7, 9, NW, None, None, ,  
02/09/2018 12:40, 2, 73, -5 ,7, 7, N, None, None, ,  
02/09/2018 12:34, 2, 73, -4 ,6, 7, N, None, None, ,  
02/09/2018 12:30, 3, 73, -4 ,4, 7, N, None, None, ,  
02/09/2018 12:20, 2, 73, -5 ,7, 8, N, None, None, ,  
02/09/2018 12:19, 2, 72, -5 ,7, 8, N, None, None, ,  
02/09/2018 12:10, 3, 72, -4 ,5, 6, N, None, None, ,  
02/09/2018 12:04, 3, 73, -3 ,4, 4, NW, None, None, ,  
02/09/2018 12:00, 2, 76, -4 ,2, 3, NW, None, None, ,  
02/09/2018 11:50, 1, 74, -5 ,2, 2, W, None, None, ,  
02/09/2018 11:49, 1, 73, -5 ,1, 2, W, None, None, ,  
02/09/2018 11:40, 1, 77, -4 ,1, 3, SW, None, None, ,  
02/09/2018 11:34, 0, 76, -5 ,2, 4, SW, None, None, ,  
02/09/2018 11:30, 0, 76, -6 ,2, 4, W, None, None, ,  
02/09/2018 11:20, -1, 77, -6 ,4, 5, W, None, None, ,  
02/09/2018 11:19, -1, 77, -6 ,4, 5, W, None, None, ,  
02/09/2018 11:10, -1, 76, -7 ,4, 5, W, None, None, ,  
02/09/2018 11:04, -1, 76, -6 ,4, 4, W, None, None, ,  
02/09/2018 11:00, -1, 77, -6 ,3, 4, W, None, None, ,  
02/09/2018 10:50, -1, 77, -6 ,4, 4, W, None, None, ,  
02/09/2018 10:49, -1, 77, -6 ,3, 4, W, None, None, ,  
02/09/2018 10:40, -1, 77, -7 ,4, 5, W, None, None, ,  
02/09/2018 10:34, -1, 78, -6 ,3, 6, SW, None, None, ,  
02/09/2018 10:29, -1, 78, -6 ,4, 6, SW, None, None, ,  
02/09/2018 10:19, -2, 79, -7 ,6, 7, SW, None, None, ,  
02/09/2018 10:19, -2, 79, -7 ,5, 7, SW, None, None, ,  
02/09/2018 10:09, -1, 79, -6 ,6, 7, SW, Yes, , ,  
02/09/2018 10:04, -1, 79, -6 ,6, 7, SW, None, None, ,  
02/09/2018 09:59, -1, 79, -6 ,6, 7, W, None, None, ,  
02/09/2018 09:49, -1, 79, -6 ,6, 7, SW, None, None, ,  
02/09/2018 09:49, -1, 79, -6 ,6, 6, SW, None, None, ,  
02/09/2018 09:39, -1, 80, -5 ,4, 4, SW, None, None, ,  
02/09/2018 09:34, -1, 80, -5 ,2, 3, SW, Yes, , ,  
02/09/2018 09:29, -1, 80, -5 ,2, 3, W, None, None, ,  
02/09/2018 09:19, -1, 80, -5 ,1, 2, W, Yes, , ,  
02/09/2018 09:19, -1, 80, -5 ,1, 2, W, Yes, , ,  
02/09/2018 09:09, -1, 80, -5 ,2, 2, W, Yes, , ,  
02/09/2018 09:04, -1, 81, -5 ,2, 3, W, Yes, , ,  
02/09/2018 08:59, 0, 81, -5 ,2, 4, W, None, None, ,  
02/09/2018 08:49, 0, 81, -4 ,2, 3, NW, Yes, , ,  
02/09/2018 08:49, 0, 81, -4 ,2, 3, NW, Yes, , ,  
02/09/2018 08:39, 0, 81, -4 ,2, 3, NW, Yes, , ,  
02/09/2018 08:34, 0, 81, -5 ,2, 3, N, Yes, , ,  
02/09/2018 08:29, -1, 81, -5 ,2, 5, N, Yes, , ,  
02/09/2018 08:19, -1, 81, -6 ,4, 5, N, Yes, , ,  
02/09/2018 08:19, -1, 81, -6 ,4, 5, N, Yes, , ,  
02/09/2018 08:09, -1, 81, -6 ,4, 6, N, Yes, , ,  
02/09/2018 08:04, -2, 80, -6 ,6, 6, N, Yes, , ,  
02/09/2018 07:59, -2, 80, -6 ,6, 7, N, Yes, , ,  
02/09/2018 07:49, -1, 81, -6 ,3, 5, E, Yes, , ,  
02/09/2018 07:49, -1, 81, -6 ,3, 5, E, Yes, , ,  
02/09/2018 07:39, -2, 80, -6 ,4, 6, E, Yes, , ,  
02/09/2018 07:34, -2, 80, -6 ,4, 6, E, None, None, ,  
02/09/2018 07:29, -2, 80, -6 ,4, 6, E, Yes, , ,  
02/09/2018 07:19, -2, 80, -7 ,7, 7, E, None, None, ,  
02/09/2018 07:19, -2, 80, -7 ,7, 7, E, None, None, ,  
02/09/2018 07:08, -2, 80, -7 ,4, 6, E, Yes, , ,  
02/09/2018 07:04, -2, 80, -7 ,5, 6, E, None, None, ,  
02/09/2018 06:58, -2, 80, -7 ,6, 6, SE, Yes, , ,  
02/09/2018 06:49, -2, 80, -7 ,5, 6, SE, Yes, , ,  
02/09/2018 06:48, -2, 80, -7 ,5, 6, E, None, None, ,  
02/09/2018 06:38, -3, 80, -7 ,3, 4, SE, None, None, ,  
02/09/2018 06:34, -3, 80, -7 ,2, 2, SE, None, None, ,  
02/09/2018 06:28, -3, 80, -7 ,1, 4, E, None, None, ,  
02/09/2018 06:19, -3, 80, -7 ,3, 4, E, None, None, ,  
02/09/2018 06:18, -3, 80, -7 ,2, 4, E, None, None, ,  
02/09/2018 06:08, -3, 80, -8 ,2, 2, SE, Yes, , ,  
02/09/2018 06:04, -3, 80, -8 ,0, 1, SE, Yes, , ,  
02/09/2018 05:58, -3, 80, -8 ,1, 2, SE, Yes, , ,  
02/09/2018 05:49, -3, 80, -8 ,2, 3, SE, Yes, , ,  
02/09/2018 05:48, -3, 80, -8 ,2, 3, SE, Yes, , ,  
02/09/2018 05:38, -4, 79, -8 ,2, 3, S, Yes, , ,  
02/09/2018 05:34, -3, 79, -8 ,1, 2, SW, Yes, , ,  
02/09/2018 05:28, -3, 80, -8 ,1, 2, S, Yes, , ,  
02/09/2018 05:19, -3, 79, -8 ,0, 2, S, Yes, , ,  
02/09/2018 05:18, -3, 79, -8 ,0, 2, S, Yes, , ,  
02/09/2018 05:08, -3, 80, -7 ,0, 1, E, Yes, , ,  
02/09/2018 05:04, -3, 80, -7 ,0, 2, E, None, None, ,  
02/09/2018 04:58, -3, 80, -8 ,1, 3, E, None, None, ,  
02/09/2018 04:49, -3, 80, -8 ,3, 4, E, None, None, ,  
02/09/2018 04:48, -3, 80, -8 ,3, 4, E, None, None, ,  
02/09/2018 04:38, -3, 80, -8 ,1, 3, NE, None, None, ,  
02/09/2018 04:34, -3, 80, -8 ,2, 3, E, None, None, ,  
02/09/2018 04:28, -3, 80, -8 ,2, 4, E, None, None, ,  
02/09/2018 04:19, -4, 79, -8 ,3, 3, E, None, None, ,  
02/09/2018 04:18, -4, 79, -9 ,2, 3, E, None, None, ,  
02/09/2018 04:08, -5, 79, -9 ,1, 2, E, None, None, ,  
02/09/2018 04:04, -5, 79, -10 ,0, 2, E, None, None, ,  
02/09/2018 03:58, -5, 79, -10 ,2, 2, E, None, None, ,  
02/09/2018 03:49, -6, 79, -11 ,2, 5, E, None, None, ,  
02/09/2018 03:47, -6, 78, -11 ,4, 5, NE, None, None, ,  
02/09/2018 03:37, -5, 79, -9 ,2, 3, SE, None, None, ,  
02/09/2018 03:34, -5, 79, -10 ,2, 4, S, None, None, ,  
02/09/2018 03:27, -5, 79, -10 ,4, 4, SW, None, None, ,  
02/09/2018 03:19, -6, 79, -11 ,2, 5, SW, None, None, ,  
02/09/2018 03:17, -6, 79, -11 ,3, 6, SW, None, None, ,  
02/09/2018 03:07, -5, 79, -10 ,6, 7, S, None, None, ,  
02/09/2018 03:04, -5, 79, -9 ,6, 7, S, None, None, ,  
02/09/2018 02:57, -4, 79, -9 ,6, 7, S, None, None, ,  
02/09/2018 02:49, -5, 79, -10 ,6, 6, SW, None, None, ,  
02/09/2018 02:47, -6, 79, -10 ,4, 5, SW, None, None, ,  
02/09/2018 02:37, -6, 79, -10 ,3, 4, W, None, None, ,  
02/09/2018 02:34, -5, 79, -10 ,4, 4, W, None, None, ,  
02/09/2018 02:27, -5, 79, -10 ,3, 4, W, None, None, ,  
02/09/2018 02:19, -5, 79, -10 ,4, 4, W, None, None, ,  
02/09/2018 02:17, -4, 79, -9 ,3, 4, W, None, None, ,  
02/09/2018 02:07, -4, 78, -9 ,2, 3, W, None, None, ,  
02/09/2018 02:04, -3, 79, -7 ,0, 3, E, None, None, ,  
02/09/2018 01:57, -2, 80, -7 ,1, 3, SE, None, None, ,  
02/09/2018 01:49, -2, 80, -7 ,2, 6, S, None, None, ,  
02/09/2018 01:47, -2, 80, -7 ,3, 6, S, None, None, ,  
02/09/2018 01:37, -2, 80, -7 ,4, 6, SW, None, None, ,  
02/09/2018 01:34, -2, 80, -7 ,4, 7, SE, Yes, , ,  
02/09/2018 01:27, -2, 79, -7 ,7, 7, SE, None, None, ,  
02/09/2018 01:19, -2, 80, -6 ,4, 7, E, None, None, ,  
02/09/2018 01:17, -2, 80, -7 ,4, 7, E, None, None, ,  
02/09/2018 01:07, -2, 79, -7 ,6, 6, E, None, None, ,  
02/09/2018 01:04, -2, 79, -6 ,4, 6, E, None, None, ,  
02/09/2018 00:57, -1, 79, -6 ,4, 5, E, None, None, ,  
02/09/2018 00:49, -2, 79, -7 ,4, 7, NE, None, None, ,  
02/09/2018 00:47, -2, 79, -7 ,5, 7, E, None, None, ,  
02/09/2018 00:37, 0, 79, -5 ,4, 6, E, None, None, ,  
02/09/2018 00:34, -1, 79, -5 ,2, 4, E, None, None, ,  
02/09/2018 00:26, 0, 79, -5 ,2, 5, NE, None, None, ,  
02/09/2018 00:19, -1, 80, -6 ,4, 7, NE, None, None, ,  
02/09/2018 00:16, -1, 80, -6 ,2, 7, N, None, None, ,  
02/09/2018 00:06, -1, 80, -6 ,6, 7, E, None, None, ,  
02/09/2018 00:04, -2, 80, -6 ,6, 7, E, None, None, ,  
02/08/2018 23:56, -2, 81, -6 ,4, 6, E, None, None, ,  
02/08/2018 23:49, -1, 81, -6 ,4, 6, E, None, None, ,  
02/08/2018 23:46, -1, 81, -6 ,6, 6, E, None, None, ,  
02/08/2018 23:36, -1, 81, -6 ,4, 6, E, None, None, ,  
02/08/2018 23:34, -1, 81, -6 ,4, 6, E, None, None, ,  
02/08/2018 23:26, -1, 81, -6 ,3, 6, E, None, None, ,  
02/08/2018 23:19, -1, 81, -5 ,4, 6, E, None, None, ,  
02/08/2018 23:16, -1, 81, -5 ,4, 6, E, None, None, ,  
02/08/2018 23:06, -1, 81, -5 ,6, 9, E, None, None, ,  
02/08/2018 23:04, 0, 80, -5 ,6, 9, E, None, None, ,  
02/08/2018 22:56, 0, 80, -5 ,6, 9, E, None, None, ,  
02/08/2018 22:49, 0, 81, -4 ,4, 6, E, None, None, ,  
02/08/2018 22:46, 0, 81, -5 ,4, 6, E, None, None, ,  
02/08/2018 22:36, 0, 80, -4 ,5, 7, E, None, None, ,  
02/08/2018 22:34, 1, 80, -4 ,6, 7, E, None, None, ,  
02/08/2018 22:26, 1, 80, -4 ,6, 7, NE, Yes, , ,  
02/08/2018 22:19, 1, 80, -3 ,6, 11, E, None, None, ,  
02/08/2018 22:16, 1, 80, -3 ,7, 12, E, None, None, ,  
02/08/2018 22:06, 2, 80, -3 ,11, 17, E, None, None, ,  
02/08/2018 22:04, 1, 81, -3 ,12, 17, E, None, None, ,  
02/08/2018 21:56, 1, 80, -3 ,14, 16, E, None, None, ,  
02/08/2018 21:49, 2, 80, -3 ,9, 11, NE, None, None, ,  
02/08/2018 21:46, 2, 81, -2 ,7, 10, E, None, None, ,  
02/08/2018 21:36, 1, 82, -3 ,9, 12, NE, None, None, ,  
02/08/2018 21:34, 1, 82, -3 ,9, 12, E, None, None, ,  
02/08/2018 21:26, 1, 82, -3 ,9, 13, E, None, None, ,  
02/08/2018 21:19, 1, 81, -3 ,11, 16, E, None, None, ,  
02/08/2018 21:16, 1, 81, -3 ,11, 17, E, None, None, ,  
02/08/2018 21:05, 1, 81, -3 ,15, 17, SE, None, None, ,  
02/08/2018 21:04, 1, 81, -3 ,15, 17, E, None, None, ,  
02/08/2018 20:55, 1, 81, -3 ,16, 21, E, None, None, ,  
02/08/2018 20:49, 1, 81, -3 ,16, 19, E, None, None, ,  
02/08/2018 20:45, 1, 81, -3 ,17, 19, E, None, None, ,  
02/08/2018 20:35, 1, 82, -3 ,14, 19, E, None, None, ,  
02/08/2018 20:34, 1, 81, -3 ,15, 19, E, None, None, ,  
02/08/2018 20:25, 2, 81, -3 ,16, 25, E, None, None, ,  
02/08/2018 20:19, 1, 81, -3 ,20, 26, SE, None, None, ,  
02/08/2018 20:15, 1, 81, -3 ,21, 26, E, None, None, ,  
02/08/2018 20:05, 1, 81, -3 ,23, 25, E, None, None, ,  
02/08/2018 20:04, 1, 81, -3 ,23, 25, E, None, None, ,  
02/08/2018 19:55, 2, 81, -3 ,19, 22, E, None, None, ,  
02/08/2018 19:49, 2, 81, -2 ,15, 19, E, None, None, ,  
02/08/2018 19:45, 2, 82, -2 ,14, 21, E, None, None, ,  
02/08/2018 19:35, 3, 82, -1 ,18, 24, E, None, None, ,  
02/08/2018 19:34, 3, 81, -1 ,19, 24, E, None, None, ,  
02/08/2018 19:25, 3, 81, -1 ,15, 21, E, None, None, ,  
02/08/2018 19:19, 3, 82, -1 ,14, 21, E, None, None, ,  
02/08/2018 19:15, 3, 82, -1 ,15, 18, E, None, None, ,  
02/08/2018 19:05, 3, 82, -1 ,14, 18, E, None, None, ,  
02/08/2018 19:04, 3, 82, -1 ,14, 18, E, None, None, ,  
02/08/2018 18:55, 3, 83, -1 ,15, 21, E, None, None, ,  
02/08/2018 18:49, 3, 83, 0 ,17, 21, E, None, None, ,  
02/08/2018 18:45, 3, 83, -1 ,18, 21, E, None, None, ,  
02/08/2018 18:35, 3, 83, -1 ,17, 19, E, None, None, ,  
02/08/2018 18:34, 3, 83, -1 ,16, 19, E, None, None, ,  
02/08/2018 18:25, 3, 83, -1 ,14, 18, E, None, None, ,  
02/08/2018 18:19, 4, 82, -1 ,14, 19, E, None, None, ,  
02/08/2018 18:15, 3, 83, -1 ,14, 21, E, None, None, ,  
Change End Date:

Copyright © 1998-2015 Vaisala, Inc.
All Rights Reserved
Send comments about the data to:
SCAN Web ® is a registered trademark of Vaisala, Inc.
SCAN Web Version 6.0